EHI
0 0 0 0 0 0 0 0 0 0 0 0 0 0 0 0 0 0 0 0 0 0 0 0 0 0 0 0 0 0 0 0 0 0 0 0 0 0
0 0 0 0 0 0 0 0 0 0 0 0 0 0 0 0 0 0 0 0 0 0 0 0 0 0 0 0 0 0 0 0 0 0 0 0 0 0
0 0 0 0 0 0 0 0 0 0 0 0 0 0 0 0 0 0 0 0 0 0 0 0 0 0 0 0 0 0 0 0 0 0 0 0 0 0
1 1 0 0 0 0 0 0 0 0 0 0 0 0 0 0 0 0 0 0 0 0 0 0 0 0 0 0 0 0 0 0 0 0 0 0 0 0
2 2 1 1 1 1 1 0 0 0 0 0 0 0 0 0 0 0 0 0 0 0 0 0 0 0 0 0 0 0 0 0 0 0 0 0 0 0
3 3 2 2 2 2 2 1 0 0 0 0 0 0 0 0 0 0 0 0 0 0 0 0 0 0 0 0 0 0 0 0 0 0 0 0 0 0
3 3 3 3 3 3 2 1 0 0 0 0 0 0 0 0 0 0 0 0 0 0 0 0 0 0 0 0 0 0 0 0 0 0 0 0 0 0
4 4 4 4 3 2 1 0 0 0 0 0 0 0 0 0 0 0 0 0 0 0 0 0 0 0 0 0 0 0 0 0 0 0 0 0 0 0
4 5 5 4 3 2 0 0 0 0 0 0 0 0 0 0 0 0 0 0 0 0 0 0 0 0 0 0 0 0 0 0 0 0 0 0 0 0
4 4 4 3 2 1 0 0 0 0 0 0 0 0 0 0 0 0 0 0 0 0 0 0 0 0 0 0 0 0 0 0 0 0 0 0 0 0
2 2 2 2 1 0 0 0 0 0 0 0 0 0 0 0 0 0 0 0 0 0 0 0 0 0 0 0 0 0 0 0 0 0 0 0 0 0
1 1 1 1 0 0 0 0 0 0 0 0 0 0 0 0 0 0 0 0 0 0 0 0 0 0 0 0 0 0 0 0 0 0 0 0 0 0
0 0 0 0 0 0 0 0 0 0 0 0 0 0 0 0 0 0 0 0 0 0 0 0 0 0 0 0 0 0 0 0 0 0 0 0 0 0
0 0 0 0 0 0 0 0 0 0 0 0 0 0 0 0 0 0 0 0 0 0 0 0 0 0 0 0 0 0 0 0 0 0 0 0 0 0
0 0 0 0 0 0 0 0 0 0 0 0 0 0 0 0 0 0 0 0 0 0 0 0 0 0 0 0 0 0 0 0 0 0 0 0 0 0
0 0 0 0 0 0 0 0 0 0 0 0 0 0 0 0 0 0 0 0 0 0 0 0 0 0 0 0 0 0 0 0 0 0 0 0 0 0
0 0 0 0 0 0 0 0 0 0 0 0 0 0 0 0 0 0 0 0 0 0 0 0 0 0 0 0 0 0 0 0 0 0 0 0 0 0
0 0 0 0 0 0 0 0 0 0 0 0 0 0 0 0 0 0 0 0 0 0 0 0 0 0 0 0 0 0 0 0 0 0 0 0 0 0
0 0 0 0 0 0 0 0 0 0 0 0 0 0 0 0 0 0 0 0 0 0 0 0 0 0 0 0 0 0 0 0 0 0 0 0 0 0
0 0 0 0 0 0 0 0 0 0 0 0 0 0 0 0 0 0 0 0 0 0 0 0 0 0 0 0 0 0 0 0 0 0 0 0 0 0
0 0 0 0 0 0 0 0 0 0 0 0 0 0 0 0 0 0 0 0 0 0 0 0 0 0 0 0 0 0 0 0 0 0 0 0 0 0
0 0 0 0 0 0 0 0 0 0 0 0 0 0 0 0 0 0 0 0 0 0 0 0 0 0 0 0 0 0 0 0 0 0 0 0 0 0
0 0 0 0 0 0 0 0 0 0 0 0 0 0 0 0 0 0 0 0 0 0 0 0 0 0 0 0 0 0 0 0 0 0 0 0 0 0
Wind_Speed
3 3 2 2 2 2 3 3 4 2 3 3 2 3 3 3 6 6 5 9 12 11 11 11 10 10 10 10 10 9 9 9 8 8 8 8 8 9
3 3 2 2 1 1 2 2 3 4 3 3 3 3 3 4 6 5 6 9 11 12 12 11 11 11 10 11 10 10 10 9 9 9 9 8 8 8
3 3 4 3 2 1 1 1 2 3 3 3 2 1 2 3 3 3 4 4 5 11 12 12 12 12 11 11 11 11 10 10 10 10 10 9 9 9
4 3 4 3 3 2 1 1 2 3 3 2 1 1 2 3 3 3 4 5 4 8 11 12 12 12 12 12 11 11 11 11 10 10 10 10 10 10
4 4 4 4 3 2 2 2 1 1 2 2 2 1 1 0 1 2 3 2 4 5 7 9 10 11 11 11 11 12 11 11 11 11 11 11 11 10
4 4 4 5 4 4 3 3 2 1 1 1 1 1 1 1 1 1 2 2 3 2 3 4 5 8 10 10 11 11 11 11 11 12 12 11 11 11
4 4 4 5 6 5 3 3 3 2 2 1 1 1 1 1 2 2 2 2 3 2 2 2 2 2 4 7 10 11 11 11 11 11 11 11 11 11
4 4 3 4 5 6 6 5 5 4 4 3 2 2 3 3 2 2 2 1 3 2 1 3 1 3 4 4 7 10 10 11 11 11 11 11 11 11
5 4 3 3 3 3 4 4 4 5 6 5 4 5 4 4 3 2 3 3 4 3 1 3 2 3 4 4 7 8 8 9 10 10 10 10 10 10
4 4 3 3 3 3 3 2 3 3 4 4 5 5 4 4 4 4 4 2 2 2 2 2 2 3 3 3 5 7 7 7 8 8 9 9 9 9
2 2 3 3 4 4 3 3 2 3 4 5 5 4 4 3 3 1 1 1 2 2 1 2 2 2 3 3 4 5 5 6 6 7 7 8 8 7
1 1 2 3 3 4 3 3 3 4 2 1 1 2 2 3 3 3 3 2 2 2 2 1 2 1 3 3 2 2 2 4 5 6 6 7 6 3
1 1 0 2 2 2 3 2 4 2 1 1 0 1 1 1 2 2 3 3 3 4 3 2 1 1 2 3 3 2 2 2 2 3 5 6 6 4
1 1 1 2 2 1 1 1 1 1 1 1 1 1 1 2 2 2 3 3 4 5 3 3 2 3 2 2 4 3 2 2 2 2 3 4 5 6
2 2 3 3 3 2 2 2 2 2 1 1 1 2 2 2 2 2 2 2 2 3 2 3 3 3 3 3 4 3 3 2 2 2 3 3 3 2
2 4 5 5 4 4 4 3 2 1 1 0 1 2 2 2 2 1 1 2 2 3 3 2 3 3 3 4 3 3 3 3 2 3 3 3 3 3
3 3 4 3 3 3 3 3 2 2 2 2 1 2 2 2 2 2 1 1 1 3 4 3 2 2 3 3 3 4 4 3 3 3 2 3 4 4
6 4 3 3 3 3 3 3 3 2 2 2 2 2 2 2 3 2 2 1 2 2 3 3 2 2 3 3 4 4 3 4 4 3 2 3 5 4
6 4 3 3 2 2 2 2 3 3 2 2 2 2 2 2 2 3 3 2 2 3 3 2 2 1 3 5 5 3 3 4 3 3 3 3 4 4
4 4 3 3 3 2 2 2 2 3 3 3 3 3 3 3 3 3 3 3 3 3 4 3 2 2 4 5 5 4 4 4 3 4 3 3 3 4
4 3 3 3 3 3 3 3 3 3 3 3 3 3 3 3 3 3 3 5 3 3 4 5 5 6 4 2 3 4 4 4 4 4 3 2 3 3
4 4 4 4 4 4 4 3 3 4 4 4 3 4 3 3 3 4 4 4 3 3 4 5 5 4 2 2 4 5 5 4 5 5 4 4 3 3
4 4 4 4 4 4 3 4 4 3 4 4 4 4 4 4 4 4 4 4 4 4 5 5 4 3 3 3 4 4 5 5 3 3 4 6 7 8
Wind_Direction
199 200 208 224 201 192 179 167 162 191 255 262 257 232 207 204 209 202 210 218 219 222 227 230 234 235 236 236 236 237 240 242 244 247 248 252 252 254
198 197 213 220 210 191 184 180 171 171 215 248 239 240 210 210 203 200 216 223 224 227 230 234 238 239 238 235 233 234 238 240 244 245 244 246 249 252
208 203 219 212 198 203 188 182 182 168 197 258 252 239 197 207 191 208 221 225 232 233 235 237 239 240 239 237 235 237 238 240 243 244 245 246 247 250
212 206 221 210 205 212 197 204 202 186 179 217 259 241 219 214 205 216 227 225 228 238 238 240 240 241 242 241 240 241 242 243 244 245 246 246 246 248
205 207 217 201 210 212 198 201 210 189 165 174 228 244 254 245 192 246 244 250 239 240 237 241 243 243 244 244 243 243 244 245 245 246 247 247 246 246
205 207 209 200 202 201 202 205 194 172 150 159 208 247 254 260 148 229 271 263 259 261 254 246 247 247 248 247 247 245 245 245 246 246 246 246 245 245
207 210 213 207 203 203 205 198 182 172 162 164 195 201 242 226 220 216 233 266 270 251 258 267 253 255 253 250 249 248 245 245 246 246 246 245 244 244
201 213 221 213 213 212 210 198 184 183 186 188 200 208 230 223 217 212 214 230 279 264 201 264 227 251 252 242 246 245 245 245 246 246 245 243 243 243
194 203 220 217 203 205 217 219 222 220 202 188 199 215 216 215 202 217 216 212 233 249 187 260 262 259 260 257 250 249 247 248 249 249 247 245 245 246
193 199 204 215 210 196 202 210 232 247 227 210 209 221 221 216 202 204 212 224 262 277 180 238 270 265 276 272 270 261 257 258 259 257 251 251 251 251
199 197 197 211 226 203 187 207 247 273 258 227 221 232 243 242 205 161 184 194 268 276 226 204 260 276 281 272 275 270 265 265 265 262 257 258 258 258
195 205 211 211 224 202 193 198 228 252 255 260 258 278 270 275 242 200 194 196 221 263 259 197 257 286 300 287 284 291 276 271 267 264 266 266 262 246
182 197 224 198 207 203 193 200 224 226 204 183 265 320 328 314 286 239 208 195 200 235 239 182 219 227 239 288 302 288 272 281 280 273 268 266 258 227
142 105 71 82 87 95 109 50 8 67 82 70 24 333 313 293 279 265 241 228 223 231 233 179 198 209 220 259 279 292 288 275 260 265 269 271 261 250
98 96 78 72 74 65 49 43 47 64 68 51 324 299 284 282 292 303 303 274 265 264 260 213 213 225 211 228 253 264 281 282 261 269 276 269 260 258
79 70 67 64 61 50 37 30 36 50 78 4 309 308 327 336 324 309 301 305 304 297 295 272 243 229 241 246 243 258 254 265 281 273 269 270 265 247
100 71 59 52 44 36 33 30 28 33 31 2 343 335 335 333 324 325 313 302 288 299 312 316 299 263 243 238 248 256 262 268 268 273 272 276 269 260
95 78 68 59 50 38 36 28 24 20 10 10 7 357 348 341 334 332 342 333 296 284 287 296 322 335 329 289 235 249 265 265 271 270 255 265 274 274
83 79 73 66 55 47 43 34 16 2 7 16 9 356 349 347 346 346 345 334 317 303 295 296 306 294 300 295 285 240 246 273 280 281 269 261 269 276
71 75 68 57 46 37 33 28 18 13 16 13 6 359 354 351 346 338 330 324 317 316 316 311 298 273 259 266 271 281 264 255 260 273 279 285 284 289
65 58 53 51 44 38 37 37 33 26 17 11 5 357 350 346 337 328 323 327 323 314 312 306 295 292 274 280 291 292 288 276 265 260 259 277 293 288
64 61 53 50 46 42 39 37 34 25 15 10 359 352 347 346 336 330 326 323 316 304 296 294 303 315 304 280 282 285 293 304 308 302 270 240 236 249
71 67 58 50 46 42 39 36 31 17 6 359 353 345 342 339 333 329 324 319 314 311 310 308 312 312 299 286 283 288 292 299 308 319 310 306 288 270